SCP
2 2 2 2 2 3 3 3 2 2 2 2 2 3 3 3 2 2 2 2 3 2 2 2 2 2 2 2 2 1 1 1 1 1 1 1 1 1 1 1 1 1 1
2 2 2 2 2 2 2 2 2 2 2 2 2 2 3 2 2 2 2 2 2 2 2 2 2 2 2 2 2 2 2 1 1 1 1 1 1 0 1 1 1 1 1
2 2 2 2 2 2 2 1 1 1 1 2 2 2 2 2 2 2 2 2 2 2 2 2 2 2 2 2 2 2 2 2 2 1 1 1 0 0 0 0 0 1 1
2 2 1 1 1 1 1 1 1 1 1 1 1 2 2 2 2 1 1 1 1 2 2 2 2 2 2 2 2 2 2 2 2 1 1 1 0 0 0 0 0 0 0
2 1 1 1 1 1 1 1 1 1 1 1 1 1 1 1 1 1 1 1 1 1 2 2 1 1 1 1 1 2 2 2 2 2 1 1 0 0 0 0 1 0 0
2 1 1 1 1 1 1 1 1 1 1 1 1 1 1 1 1 1 1 1 1 1 1 1 1 1 1 1 1 1 1 1 1 1 1 1 0 0 0 0 0 0 0
1 1 1 1 1 1 1 1 1 1 1 1 1 1 1 1 1 1 1 1 1 1 1 1 1 1 1 1 1 1 1 1 1 1 1 1 1 0 0 0 0 0 0
1 1 1 0 0 0 0 0 0 0 1 1 1 1 1 1 1 1 1 1 1 1 1 1 1 1 1 1 1 1 1 1 1 1 1 1 0 0 0 0 0 0 0
0 0 0 0 0 0 0 0 0 0 0 1 1 1 1 1 0 0 0 0 0 1 1 1 1 1 1 0 0 0 0 0 0 0 0 0 0 0 0 0 0 0 0
0 0 0 0 0 0 0 0 0 0 1 1 1 1 1 0 0 0 0 0 0 0 1 1 1 0 0 0 0 0 0 0 0 0 0 0 0 0 0 0 0 0 0
0 0 0 0 0 0 0 0 0 0 1 1 1 1 0 0 0 0 0 0 0 0 0 0 0 0 0 0 0 0 0 0 0 0 0 0 0 0 0 0 0 0 0
0 0 0 0 0 0 0 0 0 1 1 1 1 1 0 0 0 0 0 0 0 0 0 0 0 0 0 0 0 0 0 0 0 0 0 0 0 0 0 0 0 0 0
0 0 0 0 0 0 0 0 0 1 1 1 1 0 0 0 0 0 0 0 0 0 0 0 0 0 0 0 0 0 0 0 0 0 0 0 0 0 0 0 0 0 0
0 0 0 0 0 0 0 0 0 0 0 0 0 0 0 0 0 0 0 0 0 0 0 0 0 0 0 0 0 0 0 0 0 0 0 0 0 0 0 0 0 0 0
0 0 0 0 0 0 0 0 0 0 0 0 0 0 0 0 0 0 0 0 0 0 0 0 0 0 0 0 0 0 0 0 0 0 0 0 0 0 0 0 0 0 0
0 0 0 0 0 0 0 0 0 0 0 0 0 0 0 0 0 0 0 0 0 0 0 0 0 0 0 0 0 0 0 0 0 0 0 0 0 0 0 0 0 0 0
0 0 0 0 0 0 0 0 0 0 0 0 0 0 0 0 0 0 0 0 0 0 0 0 0 0 0 0 0 0 0 0 0 0 0 0 0 0 0 0 0 0 0
0 0 0 0 0 0 0 0 0 0 0 0 0 0 0 0 0 0 0 0 0 0 0 0 0 0 0 0 0 0 0 0 0 0 0 0 0 0 0 0 0 0 0
0 0 0 0 0 0 0 0 0 0 0 0 0 0 0 0 0 0 0 0 0 0 0 0 0 0 0 0 0 0 0 0 0 0 0 0 0 0 0 0 0 0 0
0 0 0 0 0 0 0 0 0 0 0 0 0 0 0 0 0 0 0 0 0 0 0 0 0 0 0 0 0 0 0 0 0 0 0 0 0 0 0 0 0 0 0
0 0 0 0 0 0 0 0 0 0 0 0 0 0 0 0 0 0 0 0 0 0 0 0 0 0 0 0 0 0 0 0 0 0 0 0 0 0 0 0 0 0 0
0 0 0 0 0 0 0 0 0 0 0 0 0 0 0 0 0 0 0 0 0 0 0 0 0 0 0 0 0 0 0 0 0 0 0 0 0 0 0 0 0 0 0
0 0 0 0 0 0 0 0 0 0 0 0 0 0 0 0 0 0 0 0 0 0 0 0 0 0 0 0 0 0 0 0 0 0 0 0 0 0 0 0 0 0 0
0 0 0 0 0 0 0 0 0 0 0 0 0 0 0 0 0 0 0 0 0 0 0 0 0 0 0 0 0 0 0 0 0 0 0 0 0 0 0 0 0 0 0
0 0 0 0 0 0 0 0 0 0 0 0 0 0 0 0 0 0 0 0 0 0 0 0 0 0 0 0 0 0 0 0 0 0 0 0 0 0 0 0 0 0 0
0 0 0 0 0 0 0 0 0 0 0 0 0 0 0 0 0 0 0 0 0 0 0 0 0 0 0 0 0 0 0 0 0 0 0 0 0 0 0 0 0 0 0
Wind_Speed
6 5 5 6 7 6 4 2 3 3 2 0 0 1 1 1 0 0 1 2 2 2 2 2 2 2 3 3 4 3 4 3 3 3 2 1 2 2 1 2 3 3 3
8 6 6 6 7 6 4 4 4 4 3 1 1 0 1 1 1 1 1 1 2 2 1 1 2 2 2 3 3 4 3 2 3 3 3 2 0 1 1 1 2 3 3
10 8 6 6 6 5 4 4 4 4 4 4 3 3 2 2 2 2 2 2 1 1 1 1 1 1 2 2 3 3 4 3 3 3 4 4 4 2 0 1 2 3 3
9 7 7 6 6 5 4 5 4 5 5 4 4 3 2 1 1 1 1 2 2 2 2 1 1 1 1 1 2 2 2 4 3 2 2 2 4 4 2 0 1 2 3
9 8 8 7 6 5 5 4 5 5 5 5 4 3 2 1 1 1 2 2 2 3 3 2 2 1 0 1 1 2 2 3 4 3 3 2 1 2 4 3 2 2 2
10 9 8 7 6 5 5 5 5 5 5 5 4 4 3 3 3 3 2 2 2 2 3 3 2 1 1 1 1 1 2 2 3 3 3 4 4 4 4 4 4 3 2
10 9 8 7 6 6 5 5 6 5 5 5 5 4 3 3 3 2 2 2 2 2 3 3 2 1 1 1 0 0 1 2 3 4 3 4 3 3 4 5 4 3 2
8 8 7 7 6 6 5 5 5 5 5 5 4 4 4 3 2 2 2 2 1 1 2 2 2 2 2 1 1 0 0 0 1 2 3 3 3 4 4 5 6 5 3
9 8 7 7 6 6 5 4 4 5 5 4 4 5 4 4 3 3 3 2 2 2 2 3 3 3 3 2 1 1 1 0 0 1 1 1 2 3 3 4 6 7 6
8 8 7 6 6 5 4 5 5 4 4 4 4 4 4 4 3 3 4 3 3 3 3 3 3 3 3 3 2 2 2 2 1 1 1 1 1 2 3 3 3 4 6
8 7 6 6 5 4 4 4 5 4 4 4 4 4 4 4 4 4 3 3 3 3 3 3 3 3 3 3 3 3 3 3 3 3 3 3 3 3 3 4 4 4 5
8 7 6 6 5 4 4 4 4 4 4 3 4 4 4 4 4 4 4 4 4 4 4 4 4 4 4 4 4 4 4 4 4 4 4 4 4 5 4 4 6 5 5
9 7 6 6 4 4 3 3 4 3 3 3 4 4 4 4 4 4 5 4 4 5 5 5 5 5 5 4 4 4 5 5 5 5 5 5 6 6 5 6 7 6 7
9 8 6 5 4 4 3 3 3 3 3 3 4 4 4 4 4 4 5 5 5 5 6 5 5 5 5 5 5 6 6 6 6 6 6 6 6 7 7 7 8 8 9
9 8 6 5 4 3 3 3 2 2 3 3 4 3 3 4 4 5 5 5 6 7 6 6 6 6 6 6 6 7 8 8 8 8 7 7 9 8 7 7 7 8 7
9 8 6 5 4 3 2 2 2 2 2 3 3 3 3 4 4 5 5 6 7 7 7 7 7 8 7 10 11 9 8 8 9 8 8 9 10 11 12 11 10 9 9
8 7 5 4 3 3 3 2 2 2 3 3 3 3 3 4 4 5 6 6 6 7 7 7 8 8 9 12 13 13 9 9 8 8 7 7 9 10 10 12 13 10 10
7 6 5 4 3 3 3 3 3 3 4 4 4 4 4 5 5 5 6 6 5 6 6 7 7 7 9 12 13 13 11 10 9 8 8 8 7 8 9 10 10 9 7
6 5 5 4 3 3 3 4 4 4 4 4 4 4 4 4 5 5 5 4 5 6 5 6 7 8 8 10 12 11 8 8 9 8 8 8 8 11 12 11 10 9 6
6 6 5 4 4 3 4 5 4 4 4 3 3 4 4 4 4 4 4 4 4 5 5 7 6 7 7 9 11 9 6 7 6 7 7 10 10 11 11 9 9 8 4
7 6 6 4 3 3 4 4 4 3 3 3 4 4 4 4 4 4 4 4 5 5 6 6 6 6 6 8 10 9 5 5 5 5 5 5 11 12 12 9 6 5 4
7 6 5 4 3 4 5 5 4 3 4 5 5 5 4 4 4 5 4 4 5 5 5 5 5 5 5 7 8 10 9 6 6 4 3 4 9 10 9 7 7 8 6
6 5 5 4 3 3 4 5 3 3 4 5 5 5 5 5 4 5 5 4 4 4 3 4 4 4 4 5 10 10 10 10 5 3 4 6 8 7 6 7 8 6 4
6 5 6 5 4 3 4 4 4 4 5 5 4 4 5 5 5 4 3 3 3 3 3 3 3 3 3 4 4 4 5 7 5 3 4 6 7 6 5 5 4 3 3
5 5 5 5 4 4 4 4 4 5 5 4 4 4 4 4 5 4 4 3 2 1 3 2 2 3 2 2 2 3 3 2 2 2 3 4 4 4 3 3 3 2 2
6 5 5 5 5 4 4 4 4 4 5 4 3 3 3 3 3 4 4 7 5 4 4 5 5 3 3 3 4 5 4 4 4 4 3 2 1 1 1 1 1 1 1
Wind_Direction
123 122 125 111 100 83 77 72 59 34 47 62 102 105 89 57 23 110 157 172 186 180 181 196 202 188 187 191 178 164 166 175 152 129 119 66 62 81 121 147 147 149 147
124 114 106 100 97 95 74 59 46 35 26 2 341 89 104 106 71 32 43 136 150 155 167 189 209 201 187 182 176 165 168 184 174 150 142 159 98 39 67 129 148 151 137
141 130 111 95 88 81 70 65 45 34 26 24 31 35 41 32 28 12 358 346 21 93 125 158 179 185 173 182 190 179 176 186 201 179 158 167 187 163 91 124 137 136 137
137 127 116 103 91 81 70 62 49 34 26 33 50 64 62 54 342 308 345 353 17 32 44 44 66 107 152 184 200 188 189 178 193 203 191 158 149 154 156 71 74 116 124
133 124 116 108 93 80 69 57 52 43 32 33 41 56 52 39 355 356 20 14 15 25 29 33 40 50 56 215 205 202 205 196 196 190 174 152 126 134 144 160 157 91 64
121 111 105 98 87 73 63 54 52 40 34 39 39 47 47 43 40 28 22 13 11 15 17 27 28 27 9 297 242 208 208 213 208 201 184 173 167 170 155 153 150 132 86
117 114 109 98 88 74 61 50 50 38 32 38 36 35 40 49 47 33 34 29 14 6 3 16 14 6 347 331 334 148 210 225 217 211 206 196 187 157 151 142 140 132 116
114 112 108 103 94 80 65 54 46 38 36 41 34 29 32 39 33 32 42 35 15 355 357 11 16 16 14 14 42 81 259 282 248 222 212 202 191 171 164 153 147 138 122
114 108 100 94 85 75 63 55 49 42 37 36 32 32 31 37 36 37 42 33 11 7 17 17 17 19 22 26 46 58 57 63 312 258 220 209 187 169 162 156 155 149 151
110 101 92 89 82 74 61 52 50 45 36 32 29 35 30 35 43 51 45 35 19 14 19 26 27 27 27 28 41 52 45 70 57 60 73 80 98 115 129 138 127 127 135
115 105 96 88 81 69 57 49 44 42 36 32 32 33 29 30 38 45 36 31 23 23 27 30 35 37 37 38 50 56 57 70 65 62 74 75 84 107 114 121 120 117 117
113 110 103 95 85 74 61 49 42 43 35 35 40 35 30 36 41 39 34 33 36 34 36 39 42 44 47 47 55 62 57 68 73 72 76 77 86 92 101 109 112 115 115
118 115 106 101 97 84 67 52 43 46 42 45 49 42 38 44 43 39 36 37 43 43 41 43 46 43 46 52 58 67 67 67 70 74 79 83 91 89 92 99 104 106 109
125 120 113 108 102 91 82 65 49 47 51 51 56 52 47 51 47 43 43 45 49 51 46 44 45 46 49 52 61 69 68 66 64 66 72 76 88 97 101 102 106 110 111
131 128 125 121 113 104 93 82 69 61 62 61 58 51 52 57 56 53 48 48 53 53 48 47 44 43 49 52 63 71 73 69 66 62 64 73 85 92 102 112 116 118 116
136 132 128 121 116 112 107 98 86 79 75 73 66 57 61 64 60 57 55 56 54 52 52 49 50 51 54 60 65 72 71 69 69 67 65 73 78 85 91 102 108 118 123
136 134 130 124 120 119 118 115 102 88 80 75 70 64 69 73 68 70 65 60 58 58 55 51 54 55 53 61 66 66 69 65 59 60 64 74 76 79 87 87 85 86 100
134 131 127 122 118 113 105 100 93 89 85 76 69 65 74 78 75 72 68 61 59 59 57 55 55 57 53 62 69 70 68 64 57 57 65 74 70 80 90 88 80 75 77
133 130 128 126 121 114 108 102 89 84 83 77 72 70 82 87 83 79 72 66 67 61 57 58 59 60 50 60 70 74 72 66 54 51 56 69 75 82 91 91 87 78 64
121 123 120 115 118 120 110 105 97 90 86 84 81 76 82 89 89 87 78 71 75 71 69 61 54 58 55 60 73 78 79 72 60 48 46 59 74 78 84 90 95 90 79
125 122 119 118 128 125 113 106 102 99 98 90 83 78 79 84 91 84 74 79 77 70 66 61 47 45 47 58 69 75 80 86 76 62 47 51 72 77 80 83 89 102 103
126 124 122 121 118 117 115 111 107 99 93 89 83 76 65 72 84 85 75 71 77 74 65 63 50 36 34 48 67 73 78 88 86 74 56 62 73 76 77 77 87 88 83
130 127 129 124 112 112 119 122 119 105 96 89 83 75 69 60 63 73 77 69 68 76 69 70 66 43 30 41 61 69 74 77 78 68 74 73 69 64 59 63 75 78 80
134 133 130 126 122 119 119 126 123 113 104 98 90 80 78 65 54 54 60 72 73 77 77 83 81 61 42 31 33 46 58 61 59 42 40 50 54 53 47 43 48 59 89
135 136 137 134 135 134 129 130 126 117 109 102 96 89 86 86 73 61 51 63 57 134 136 136 131 109 78 13 66 82 66 57 50 52 43 37 31 28 23 24 29 40 57
137 135 135 137 144 145 137 135 134 130 122 115 110 105 105 98 95 91 62 40 49 57 92 123 126 96 115 112 85 71 65 57 71 71 51 33 27 26 22 35 24 26 43